sat.trackr.live / text

‹ back to catalog

STARLINK-31091

NORAD 58629 · 2023-203M

PAYLOAD ACTIVE UNKNOWN

§ Identity

Operator
Country
US
Launch date
2023-12-23
Launch site
AFETR
Launch vehicle
Mass (kg)
RCS (m²)

Purposes: comms

External: N2YO · Heavens-Above · Gunter

§ Orbital elements

Epoch: 2026-09-20T02:44:01.112064Z

Period
94.27 min
Inclination
43.0027°
Eccentricity
0.0001346
Mean motion
15.27578187 rev/d
Perigee alt
482.1 km
Apogee alt
484.0 km
Semi-major
6,861.2 km
B*
-8.6022e-7
RAAN
52.7307°
Arg perigee
269.8491°
Mean anomaly
90.2207°
Rev number
15,325

§ Raw data

STARLINK-310911 58629U 23203M   26263.11390176 -.00000286  00000+0 -86022-6 0  99982 58629  43.0027  52.7307 0001346 269.8491  90.2207 15.27578187153252

JSON: /api/v1/satellites/58629 · /tle

For live sub-satellite position, see the globe view (requires WebGL).

§ Visibility from observer

Set your observer location to see the next 7 days of passes ≥ 10°. The values pass through the URL so the page stays shareable.

No JS? Fill the form by hand. The geolocation button needs JavaScript.